Location: White Mills Observatory
(37.5374°N, 86.0303°W)
Time: 12:04:50
(UTC-04:00)

Hubble Space Telescope - Visible Passes

Search period start: 29 June 2017 00:00
Search period end: 09 July 2017 00:00
Orbit: 538 x 542 km, 28.5° (Epoch: 28 June)

Date Brightness Start Highest point End Pass type
(mag) Time Alt. Az. Time Alt. Az. Time Alt. Az.
01 Jul 3.0 04:47:19 12° SSE 04:47:24 12° SSE 04:48:56 10° SE visible
02 Jul 2.9 04:37:39 14° SSE 04:37:39 14° SSE 04:39:22 10° SE visible
03 Jul 2.8 04:28:00 15° SSE 04:28:00 15° SSE 04:29:34 10° SE visible
04 Jul 2.9 04:18:23 15° SE 04:18:23 15° SE 04:19:39 10° SE visible
04 Jul 2.2 05:54:10 10° SW 05:57:28 23° S 06:00:46 10° SE visible
05 Jul 3.0 04:08:49 14° SE 04:08:49 14° SE 04:09:40 10° ESE visible
05 Jul 2.2 05:44:11 11° SW 05:47:18 22° S 05:50:34 10° SE visible
06 Jul 3.3 03:59:20 11° SE 03:59:20 11° SE 03:59:37 10° ESE visible
06 Jul 2.2 05:34:42 13° SW 05:37:08 21° S 05:40:19 10° SE visible
07 Jul 2.2 05:25:21 16° SW 05:26:57 20° S 05:30:02 10° SE visible
08 Jul 2.3 05:16:09 18° SSW 05:16:47 18° S 05:19:40 10° SSE visible
